Content
SEND FEEDBACK

Daily
Averages
Monthly
Summary
United States of America

RAYMOND, WASHINGTON


Home > North America > United States > Washington
Elevation: 9 meters     Latitude: 46 39N     Longitude: 123 43W

WEATHER
 
SELECT A DAY
Number of Records: 205,692;   Date Range: 7/1/96 - 7/29/14
 
SHARE

PRINT THIS DATA

[ ← Previous Day ]
WEATHER ALMANAC - 13 FEBRUARY, 2013
[ Next Day → ]
[ °F ]   °C
Weather ElementAverageHighLow
Temperature7.7 °C9.4 °C (1:53 pm)5 °C (10:53 pm)
Dewpoint5.4 °C7 °C (12:23 am)3.9 °C (3:53 am)
Humidity85.3 %100 % (11:35 pm)74 % (2:53 pm)
Barometer1031.2 hPa1033.5 hPa (10:53 pm)1028.8 hPa (12:23 am)
Wind Speed10.9 km/h22.2 km/h (12:53 am)
Wind Gust29.6 km/h (12:23 am)
Weather ElementAverage
Visibility13.7 km
Wind DirectionSSW (215.7 °)

Weather ElementTotal
Precipitation---
Heating Degree Days11.2 (Base 18.3)
Averaged from 44 records on 13 February, 2013
WEATHER CONDITIONS BREAKOUT
WIND DIRECTION BREAKOUT
WEATHER BY HOUR - 13 FEBRUARY, 2013
[ °F ]   °C
Local TimeTemperatureDewpointHumidityBarometerVisibilityWind DirectionWind SpeedGust SpeedPrecipitationEventsConditions
12:23 AM8 °C7 °C93 %1028.8 hPa6.4 kmWest (270°)20.4 km/h29.6 km/hOvercast
12:31 AM8 °C7 °C93 %1029.1 hPa8 kmWest (270°)18.5 km/hOvercast
12:42 AM8 °C7 °C93 %1028.8 hPa8 kmWest (270°)16.7 km/hOvercast
12:53 AM7.8 °C6.7 °C93 %1029.5 hPa6.4 kmWest (260°)22.2 km/hOvercast
12:58 AM8 °C7 °C93 %1029.1 hPa8 kmWest (260°)20.4 km/hOvercast
1:09 AM8 °C7 °C93 %1029.1 hPa6.4 kmWest (260°)16.7 km/hOvercast
1:53 AM7.2 °C6.1 °C93 %1029.5 hPa11.3 kmWSW (240°)14.8 km/hOvercast
2:34 AM8 °C5 °C81 %1029.5 hPa16.1 kmWest (280°)9.3 km/hOvercast
2:53 AM7.8 °C5.6 °C86 %1029.8 hPa16.1 kmWest (280°)5.6 km/hOvercast
3:53 AM7.8 °C3.9 °C76 %1029.8 hPa16.1 kmWSW (240°)9.3 km/hOvercast
4:53 AM7.8 °C4.4 °C79 %1030.1 hPa16.1 kmWest (280°)7.4 km/hOvercast
5:29 AM7 °C5 °C87 %1029.8 hPa16.1 kmWest (270°)5.6 km/hOvercast
5:53 AM7.8 °C5 °C83 %1030.5 hPa16.1 kmWest (270°)9.3 km/hMostly Cloudy
6:53 AM7.2 °C5 °C86 %1030.8 hPa16.1 kmWSW (250°)5.6 km/hOvercast
7:53 AM7.2 °C5 °C86 %1031.2 hPa16.1 kmWest (260°)5.6 km/hOvercast
8:53 AM7.8 °C5 °C83 %1031.5 hPa14.5 kmWest (270°)11.1 km/hOvercast
9:53 AM8.3 °C5 °C80 %1032.2 hPa16.1 kmWSW (250°)14.8 km/hOvercast
10:53 AM8.3 °C5.6 °C83 %1032.2 hPa16.1 kmWSW (240°)14.8 km/hOvercast
11:00 AM8 °C6 °C87 %1031.8 hPa16.1 kmSW (230°)14.8 km/hOvercast
11:48 AM8 °C6 °C87 %1031.8 hPa16.1 kmWSW (250°)11.1 km/hOvercast
11:53 AM8.9 °C5.6 °C80 %1032.2 hPa16.1 kmWSW (250°)11.1 km/hOvercast
12:37 PM9 °C6 °C82 %1031.8 hPa16.1 kmWSW (250°)16.7 km/hOvercast
12:53 PM8.9 °C5.6 °C80 %1032.2 hPa16.1 kmWSW (250°)13 km/hOvercast
1:01 PM9 °C6 °C82 %1031.5 hPa16.1 kmWSW (250°)14.8 km/hOvercast
1:25 PM9 °C5 °C76 %1031.2 hPa16.1 kmWSW (250°)18.5 km/hOvercast
1:37 PM9 °C5 °C76 %1031.2 hPa16.1 kmWSW (250°)13 km/hOvercast
1:53 PM9.4 °C5.6 °C77 %1031.8 hPa16.1 kmWSW (250°)16.7 km/hOvercast
2:14 PM9 °C6 °C82 %1031.2 hPa16.1 kmWest (260°)14.8 km/hOvercast
2:53 PM8.9 °C4.4 °C74 %1031.8 hPa16.1 kmWest (270°)9.3 km/hOvercast
3:03 PM9 °C5 °C76 %1031.5 hPa16.1 kmWest (270°)11.1 km/hOvercast
3:53 PM8.9 °C5 °C77 %1032.2 hPa16.1 kmWest (270°)14.8 km/hOvercast
4:01 PM8 °C5 °C81 %1031.5 hPa16.1 kmWest (280°)11.1 km/hOvercast
4:53 PM8.3 °C5 °C80 %1032.2 hPa16.1 kmSW (230°)9.3 km/hOvercast
5:01 PM8 °C5 °C81 %1031.8 hPa16.1 kmSW (230°)13 km/hOvercast
5:53 PM7.8 °C5 °C83 %1031.8 hPa16.1 kmWSW (250°)9.3 km/hMostly Cloudy
6:53 PM6.7 °C5 °C89 %1032.2 hPa16.1 kmSW (230°)5.6 km/hScattered Clouds
7:53 PM6.7 °C5 °C89 %1032.8 hPa16.1 kmCalmMostly Cloudy
8:53 PM6.7 °C5.6 °C93 %1032.8 hPa16.1 kmCalmOvercast
9:53 PM6.1 °C5 °C93 %1032.8 hPa16.1 kmCalmOvercast
10:53 PM5 °C4.4 °C96 %1033.5 hPa9.7 kmCalmMostly Cloudy
11:20 PM6 °C5 °C93 %1033.2 hPa6.4 kmNE (50°)5.6 km/hOvercast
11:35 PM5 °C5 °C100 %1033.2 hPa4 kmENE (70°)7.4 km/hOvercast
11:51 PM6 °C4 °C87 %1033.2 hPa6.4 kmENE (70°)5.6 km/hOvercast
11:53 PM5.6 °C4.4 °C92 %1033.5 hPa6.4 kmENE (60°)5.6 km/hOvercast
Hourly data recorded from KHQM, located 0 kilometers away from Raymond, Washington







STORIES FROM OUR PARTNERS